Location: Catacaguana
(10.4120°N, 66.7591°W)
Time: 06:31:42
(UTC+00:00)

Aurora 2 Rocket - Pass Details

Date: 27 May 2022
Orbit: 389 x 1721 km, 25.0° (Epoch: 26 June)

Event Time Altitude Azimuth Distance (km) Brightness Sun altitude
Rises 00:32:42 0° 288° (WNW) 2,909 7.3 -25.0°
Reaches altitude 10° 00:35:24 10° 282° (WNW) 1,814 5.9 -25.5°
Enters shadow 00:38:02 32° 258° (WSW) 838 3.6 -26.1°
